Back to catalog

ONEWEB-0565

AliveCommunicationsPO
NORAD 55146·PAYLOAD·🇬🇧 United Kingdom

Launched Jan 10, 2023 from Cape Canaveral Space Force Station

Loading…

Next Passes (next 24 hours)

TLE

FreshSource: CelesTrak SupGP

Epoch: Sep 14, 2026, 07:22 UTC

1 55146C 23004G   26257.30743472 -.00006291  00000+0 -15976-1 0  2577
2 55146  87.9156 317.7686 0001551  99.7439 302.6995 13.18695551    19

Track ONEWEB-0565 in real time with AllMySat

Download on the App Store